STARLINK-33682

Satellite information

Favourite Embed

Satellite Type and Status

PAYLOADIN ORBIT

Key statistics

Satellite STARLINK-33682 at a glance.

Uptime

253

Days in orbit

Revolutions

≈ 15.3

Per day

Orbit

LEO

Low Earth Orbit

Inclination

53.2

Latest

Satellite identification and parameters

Extended collection of information and parameters for STARLINK-33682.

Object identification

Identified? True

Debris? False

Object name: STARLINK-33682

International designator: 2025-069A

Object number (NORAD): 63433

Object ID (CCSDS): 63433

Country: UNITED STATES OF AMERICA (US)

Current information (Y/N): Y

RCS size: LARGE

Orbital parameters

Period: 94.105 minutes

Inclination: 53.158 deg

SMA: 6853.332 km

Apoapsis: 476.002 km

Periapsis: 474.393 km

RAAN: 188.4643 deg

Eccentricy: 0.00011741

Argument of periapsis: 88.8011 deg

Mean anomaly: 271.3124 deg

Mean motion: 15.30206593 rev/day

Mean motion (dot): 0.00053256 rev/day2

B* drag term: 0.0017969966 1/REarth

Two-line elements (TLE)

Creation date: Dec. 12, 2025, 10:14 a.m.

Reference frame: TEME

Reference center: EARTH

Epoch: Dec. 12, 2025, 7:05 a.m. UTC

TLE line 0: 0 STARLINK-33682

TLE line 1: 1 63433U 25069A 25346.29559809 .00053256 00000-0 17970-2 0 9995

TLE line 2: 2 63433 53.1580 188.4643 0001174 88.8011 271.3124 15.30206593 40026

Live tracking on map

Real-time ground track for satellite STARLINK-33682.

In-orbit conjunctions

There are no conjunctions computed for STARLINK-33682, at the moment. Check back to stay up to date, as we update our databases every day.

Go to all conjunctions

Associated space launch

A batch of 27 satellites for the Starlink mega-constellation - SpaceX's project for space-based Internet communication system.

STARLINK-33682 was lifted into orbit during the mission ‘Falcon 9 Block 5 | Starlink Group 11-13’, on board a Falcon 9 space rocket.

The launch took place on April 4, 2025, 1:02 a.m. from Space Launch Complex 4E.

For more information about the launch, click the button.

Launch to space Falcon 9 Block 5 | Starlink Group 11-13
Falcon 9 Block 5 | Starlink Group 11-13

Agency: SpaceX

Status: Launch Successful

Launch date: April 4, 2025, 1:02 a.m. UTC

Rocket: Falcon 9

Launch pad: Space Launch Complex 4E

Location: Vandenberg SFB, CA, USA

...

Latest news about this satellite

News about space launch
Launch Roundup: Falcon 9 to fly five missions during busy week

Five Falcon 9 missions are scheduled to launch this week, including the first-ever crewed mission… The post Launch Roundup: Falcon 9 to fly five missions during busy week appeared first on NASASpaceFlight.com.

News about space launch
Live coverage: SpaceX to launch 27 Starlink satellites on Falcon 9 rocket from Vandenberg

This will be the 12th launch of the year from Vandenberg Space Force Base. Liftoff from Space Launch Complex 4 East is set for 4:39 p.m. PDT (7:39 p.m. EDT, 2339 UTC).

News about space launch
Launch Roundup: Alpha, Spectrum, Electron, and Falcon 9 set to fly

The week ahead includes four launches scheduled for Wednesday and the third Electron rocket to… The post Launch Roundup: Alpha, Spectrum, Electron, and Falcon 9 set to fly appeared first on NASASpaceFlight.com.


Newsletter sign-up

Weekly statistics, charts and insights to help you stay on top of the space industry.